Flag for U.S.A. Weather past 2 weeks in Bradenton, Florida, U.S.A.

Now
72 °F

Light rain. Partly sunny.


Feels Like: 65 °F
Forecast: 70 / 79 °F
Wind: 3 mph from Northwest

Location: Sarasota-Bradenton International Airport

Current Time: Sep 20, 2014 at 10:42:13 AM

Latest Report: Sep 20, 2014 at 8:53 AM


Visibility: 10 mi

Pressure: 29.91 "Hg

Humidity: 100%

Dew point: 72 °F

Location of BradentonLocation

Historic Weather in Bradenton — Graph

°F

Bradenton temperature yesterday

Maximum temperature yesterday: 81 °F (at 9:53 AM)
Minimum temperature yesterday: 70 °F (at 7:53 PM)
Average temperature yesterday: 76 °F

Past Weeks' High & Low Weather Summary

 TemperatureHumidityPressure
High92 °F (Sep 10, 2:53 PM)100% (Sep 18, 3:53 AM)30.15 "Hg (Sep 18, 3:53 AM)
Low70 °F (Sep 19, 7:53 PM)49% (Sep 10, 3:53 PM)29.85 "Hg (Sep 18, 4:53 PM)
Average80 °F81%29.99 "Hg
* Reported Sep 5 8:53 AM — Sep 20 8:53 AM, Bradenton, Weather by CustomWeather, © 2014

Note: Actual official high and low records may vary slightly from our data, if they occured in-between our weather recording intervals... More about our weather records

Advertising

Bradenton weather history for previous 24 hours

 ConditionsComfort  
Time TempWeatherWind HumidityBarometerVisibility
8:53 AM
Sep 20
72 °FLight rain. Partly sunny.3 mph100%29.91 "Hg10 mi
7:53 AM72 °FLight rain. Fog.5 mph97%29.90 "Hg4 mi
7:02 AM72 °FLight rain. Fog.5 mph97%29.88 "Hg6 mi
6:53 AM72 °FLight rain. Fog.6 mph97%29.88 "Hg5 mi
6:03 AM72 °FLight rain. Mostly cloudy.7 mph97%29.87 "Hg10 mi
4:53 AM71 °FLow clouds.9 mph100%29.86 "Hg10 mi
3:53 AM71 °FMostly cloudy.8 mph96%29.86 "Hg10 mi
2:53 AM71 °FLight rain. Mostly cloudy.9 mph96%29.88 "Hg10 mi
1:53 AM71 °FOvercast.12 mph96%29.90 "Hg10 mi
12:53 AM71 °FLight rain. Overcast.10 mph96%29.93 "Hg9 mi
11:53 PM
Sep 19
71 °FLight rain. Mostly cloudy.10 mph96%29.94 "Hg10 mi
10:53 PM71 °FLight rain. Passing clouds.12 mph96%29.95 "Hg10 mi
9:53 PM71 °FLight rain. Passing clouds.10 mph96%29.95 "Hg9 mi
8:53 PM71 °FLight rain. Partly cloudy.9 mph96%29.93 "Hg10 mi
7:53 PM70 °FHeavy rain. Fog.8 mph100%29.93 "Hg2 mi
6:53 PM72 °FRain. Fog.9 mph93%29.91 "Hg2 mi
5:53 PM73 °FLight rain. Cloudy.7 mph94%29.91 "Hg10 mi
4:53 PM74 °FLight rain. Mostly cloudy.9 mph88%29.90 "Hg10 mi
3:53 PM79 °FMostly cloudy.8 mph84%29.90 "Hg10 mi
2:53 PM79 °FLight rain. More clouds than sun.5 mph94%29.91 "Hg10 mi
1:53 PM78 °FLight rain. Partly sunny.5 mph96%29.93 "Hg8 mi
12:53 PM79 °FRain. Scattered clouds.5 mph88%29.95 "Hg8 mi
11:53 AM81 °FSunny.10 mph79%29.94 "Hg10 mi
10:53 AM81 °FSunny.10 mph79%29.94 "Hg10 mi
Weather by CustomWeather, © 2014

See weather overviewHow to use our weather pages